| time (UTC) | temp F | wind direction | speed MPH | gust MPH | rain 1hr in | rain 24hr in | rain mn in | humidity % | barometer mb |
| 20260505083103 | 69 | 180 | 6.0 | 13.0 | 0.00 | 0.00 | 0.00 | 86 | 1003.8 |
| 20260505081606 | 69 | 214 | 7.0 | 15.0 | 0.00 | 0.00 | 0.00 | 86 | 1004.2 |
| 20260505080058 | 69 | 169 | 8.0 | 15.0 | 0.00 | 0.00 | 0.00 | 86 | 1004.3 |
| 20260505074555 | 69 | 203 | 6.0 | 14.0 | 0.00 | 0.00 | 0.00 | 86 | 1004.5 |
| 20260505073104 | 69 | 151 | 6.0 | 14.0 | 0.00 | 0.00 | 0.00 | 85 | 1004.7 |
| 20260505071559 | 69 | 211 | 6.0 | 14.0 | 0.00 | 0.00 | 0.00 | 85 | 1004.8 |
| 20260505070051 | 69 | 179 | 5.0 | 11.0 | 0.00 | 0.00 | 0.00 | 84 | 1005.1 |
| 20260505064548 | 69 | 209 | 7.0 | 16.0 | 0.00 | 0.00 | 0.00 | 84 | 1005.2 |
| 20260505063042 | 69 | 211 | 7.0 | 14.0 | 0.00 | 0.00 | 0.00 | 84 | 1005.3 |
| 20260505061545 | 70 | 169 | 6.0 | 16.0 | 0.00 | 0.00 | 0.00 | 84 | 1005.8 |
| 20260505060047 | 70 | 169 | 6.0 | 13.0 | 0.00 | 0.00 | 0.00 | 84 | 1005.6 |
| 20260505054538 | 70 | 139 | 8.0 | 12.0 | 0.00 | 0.00 | 0.00 | 83 | 1005.8 |
| 20260505053034 | 70 | 115 | 6.0 | 14.0 | 0.00 | 0.00 | 0.00 | 83 | 1005.8 |
| 20260505051537 | 70 | 119 | 7.0 | 15.0 | 0.00 | 0.00 | 0.00 | 83 | 1005.6 |
| 20260505041529 | 71 | 148 | 6.0 | 14.0 | 0.00 | 0.00 | 0.00 | 81 | 1005.6 |
| 20260505040028 | 71 | 128 | 6.0 | 14.0 | 0.00 | 0.00 | 0.00 | 80 | 1005.7 |
| 20260505034527 | 71 | 144 | 4.0 | 16.0 | 0.00 | 0.00 | 0.00 | 79 | 1005.6 |
| 20260505033027 | 72 | 168 | 5.0 | 13.0 | 0.00 | 0.00 | 0.00 | 78 | 1005.6 |
| 20260505031526 | 72 | 186 | 5.0 | 9.0 | 0.00 | 0.00 | 0.00 | 77 | 1005.5 |
| 20260505030026 | 72 | 152 | 4.0 | 9.0 | 0.00 | 0.00 | 0.00 | 76 | 1005.7 |
| 20260505024526 | 73 | 177 | 4.0 | 8.0 | 0.00 | 0.00 | 0.00 | 75 | 1005.6 |
| 20260505023026 | 73 | 169 | 3.0 | 7.0 | 0.00 | 0.00 | 0.00 | 74 | 1005.7 |
| 20260505021529 | 74 | 173 | 3.0 | 6.0 | 0.00 | 0.00 | 0.00 | 73 | 1005.6 |
| 20260505020023 | 74 | 132 | 2.0 | 7.0 | 0.00 | 0.00 | 0.00 | 73 | 1005.4 |
| 20260505014524 | 74 | 150 | 4.0 | 9.0 | 0.00 | 0.00 | 0.00 | 72 | 1005.3 |
| 20260505013023 | 75 | 201 | 2.0 | 8.0 | 0.00 | 0.00 | 0.00 | 70 | 1005.4 |
| 20260505011525 | 75 | 155 | 3.0 | 8.0 | 0.00 | 0.00 | 0.00 | 69 | 1005.2 |
| 20260505010021 | 76 | 133 | 3.0 | 11.0 | 0.00 | 0.00 | 0.00 | 69 | 1005.1 |
| 20260505004525 | 77 | 179 | 4.0 | 12.0 | 0.00 | 0.00 | 0.00 | 68 | 1005.1 |
| 20260505003021 | 77 | 192 | 4.0 | 12.0 | 0.00 | 0.00 | 0.00 | 67 | 1005.0 |
| 20260505001520 | 78 | 159 | 6.0 | 16.0 | 0.00 | 0.00 | 0.00 | 66 | 1005.1 |
| 20260505000025 | 78 | 193 | 6.0 | 12.0 | 0.00 | 0.00 | 0.00 | 65 | 1005.2 |
| 20260504234518 | 78 | 119 | 6.0 | 16.0 | 0.00 | 0.00 | 0.00 | 65 | 1005.3 |
| 20260504233015 | 78 | 220 | 5.0 | 16.0 | 0.00 | 0.00 | 0.00 | 65 | 1005.6 |
| 20260504231515 | 78 | 181 | 6.0 | 13.0 | 0.00 | 0.00 | 0.00 | 65 | 1005.6 |
| 20260504230014 | 78 | 180 | 7.0 | 13.0 | 0.00 | 0.00 | 0.00 | 65 | 1005.9 |
| 20260504224516 | 78 | 210 | 9.0 | 16.0 | 0.00 | 0.00 | 0.00 | 64 | 1006.0 |
| 20260504223011 | 79 | 121 | 5.0 | 12.0 | 0.00 | 0.00 | 0.00 | 64 | 1006.1 |
| 20260504221511 | 79 | 201 | 4.0 | 15.0 | 0.00 | 0.00 | 0.00 | 64 | 1006.4 |
| 20260504220009 | 79 | 223 | 7.0 | 14.0 | 0.00 | 0.00 | 0.00 | 65 | 1006.3 |
| 20260504214517 | 79 | 171 | 7.0 | 12.0 | 0.00 | 0.00 | 0.00 | 65 | 1006.4 |
| 20260504213007 | 79 | 173 | 7.0 | 14.0 | 0.00 | 0.00 | 0.00 | 65 | 1006.5 |
| 20260504211507 | 79 | 170 | 6.0 | 11.0 | 0.00 | 0.00 | 0.00 | 65 | 1006.7 |
| 20260504210003 | 79 | 207 | 5.0 | 13.0 | 0.00 | 0.00 | 0.00 | 65 | 1006.9 |
| 20260504204502 | 80 | 198 | 6.0 | 14.0 | 0.00 | 0.00 | 0.00 | 65 | 1007.2 |
| 20260504203106 | 79 | 234 | 6.0 | 17.0 | 0.00 | 0.00 | 0.00 | 65 | 1007.5 |
| 20260504201618 | 80 | 217 | 8.0 | 15.0 | 0.00 | 0.00 | 0.00 | 65 | 1007.8 |
| 20260504200056 | 79 | 198 | 7.0 | 15.0 | 0.00 | 0.00 | 0.00 | 66 | 1007.9 |
| 20260504194555 | 79 | 144 | 5.0 | 13.0 | 0.00 | 0.00 | 0.00 | 67 | 1008.2 |
| 20260504193051 | 78 | 159 | 4.0 | 10.0 | 0.00 | 0.00 | 0.00 | 68 | 1008.3 |
| 20260504191556 | 77 | 225 | 6.0 | 18.0 | 0.00 | 0.00 | 0.00 | 68 | 1008.6 |
| 20260504190056 | 77 | 159 | 5.0 | 14.0 | 0.00 | 0.00 | 0.00 | 69 | 1008.7 |
| 20260504184602 | 77 | 197 | 8.0 | 14.0 | 0.00 | 0.00 | 0.00 | 69 | 1009.0 |
| 20260504183042 | 76 | 167 | 5.0 | 15.0 | 0.00 | 0.00 | 0.00 | 71 | 1009.2 |
| 20260504181539 | 76 | 202 | 8.0 | 17.0 | 0.00 | 0.00 | 0.00 | 71 | 1009.4 |
| 20260504180041 | 75 | 219 | 7.0 | 15.0 | 0.00 | 0.00 | 0.00 | 72 | 1009.5 |
| 20260504174537 | 75 | 148 | 5.0 | 14.0 | 0.00 | 0.00 | 0.00 | 73 | 1009.8 |
| 20260504173033 | 74 | 200 | 6.0 | 12.0 | 0.00 | 0.00 | 0.00 | 75 | 1010.2 |
| 20260504171530 | 73 | 150 | 4.0 | 10.0 | 0.00 | 0.00 | 0.00 | 76 | 1010.4 |
| 20260504140112 | 64 | 131 | 6.0 | 11.0 | 0.00 | 0.00 | 0.00 | 80 | 1011.5 |
| 20260504120109 | 60 | 175 | 3.0 | 6.0 | 0.00 | 0.00 | 0.00 | 79 | 1010.9 |